Location: Killam
(52.7910°N, 111.8608°W)
Time: 11:59:07
(UTC+00:00)

ISS - Pass Details

Date: 24 January 2026
Orbit: 413 x 428 km, 51.6° (Epoch: 18 February)

Event Time Altitude Azimuth Distance (km) Brightness Sun altitude
Rises 03:01:11 0° 281° (W) 2,371 1.3 -27.5°
Reaches altitude 10° 03:03:27 10° 269° (W) 1,507 0.0 -27.8°
Enters shadow 03:04:49 19° 253° (WSW) 1,066 -1.1 -28.0°
